BREEZE-M DEB (TANK), 45988

Orbit data source: Space-Track

BREEZE-M DEB (TANK), 45988 is space debris in HEO originally from a launch on Thu, 30 Jul 2020 UTC launched from the Tyuratam Missile And Space Complex (TTMTR). Debris objects in space refer to the collection of defunct objects orbiting the Earth. Examples of debris include non-operational satellites, rocket bodies, and fragments generated from explosions, collisions, or faulty payload assembly.

Loading next visibility...
Identifier
45988, 2020-053D
Orbit
HEO
Country
Flag of CISCIS
Related business
Manufacturer
Khrunichev
Mission
Spacecraft
Bus & Motor
BRIZ TANK, Unknown motor
Mass
~1,000 kg wet, 1,000 kg dry
Launch date (UTC)
2020-07-30 (6 years ago)
Launch vehicle
Unknown
Launch site
Tyuratam Missile And Space Complex (TTMTR)
Object type
Payload
Rocket body
Debris
Shape & HBR
Torus, 2.1 m
Radar Cross Section
8.218 m², Large (>1 m²)

Expand to show TLE details & history
Last TLE update: 1 day ago

TLE from 1 day ago
0 BREEZE-M DEB (TANK)
1 45988U 20053D   26262.45448090  .00000254  00000-0  42182-3 0  9997
2 45988  49.6447 323.3463 6221825 341.7133   3.4796  3.64501412 80207
Epoch: 2026-09-19T10:54Z
TLE epoch observation values (Epoch: 2026-09-19T10:54:27.149Z)
Latitude
-0.00008°
Longitude
161.37691°
Altitude
494.253 km
Speed
9.678 km/s
True Right ascension
21h 33m 24s
True Declination
0° 00' 00"
Sunlit
Object was in full shadow at epoch
Visualization orbit readout
Latitude
Unknown
Longitude
Unknown
Altitude
Unknown
Speed
Unknown
Apparent Right ascension
Unknown
Apparent Declination
Unknown
Sunlit
N/A
Visualization observer readout
Local Sidereal Time
12:13:12
Azimuth
Unknown
Elevation
Unknown
Doppler factor
Unknown
Orbital elements
Apogee altitude
22,554.31 km
Perigee altitude
360.43 km
Semi-major axis
17,835.507 km
Eccentricity
0.62218
Inclination
49.6447°
RAAN
323.3463°
Arg. of periapsis
341.7133°
True anomaly
18.82033°
Mean anomaly
3.4796°
Eccentric anomaly
9.14586°
Mean motion
0.9112 °/min
Orbital period
395.08 mins
BSTAR
0.00042182
Loading maneuver chart data...
Computing Atmospheric mass density...
Loading historical data...
Loading historical data...
Loading historical data...
Loading historical data...
Loading historical data...
Loading historical data...
Loading historical data...
Other satellites on launch #53 in the year 2020 (2020-07-30 UTC)

Documentation

Showing up to 5 results
|